Regional Weather Roundup
Issued by NWS State College, PA

Home | Current Version | Previous Version | Graphics & Text | Print | Product List | Glossary Off
Versions: 1 2 3 4 5 6 7 8 9 10 11 12 13 14 15 16 17 18 19 20 21 22 23 24 25 26 27 28 29 30 31 32 33 34 35 36 37 38 39 40 41 42 43 44 45 46 47 48 49 50

000
ASUS41 KCTP 270710
RWRCTP

REGIONAL WEATHER ROUNDUP
NATIONAL WEATHER SERVICE STATE COLLEGE PA
200 AM EST THU NOV 27 2014

Note: "fair" indicates few or no clouds below 12,000 feet with no
significant weather and/or obstructions to visibility.

* = STATION THAT DOES NOT REPORT PRECIPITATION /E.G. RAIN...SNOW...ETC/
    THUNDER OR FOG.

PAZ002>004-007>009-013>016-020>023-029>032-270800-
WESTERN PENNSYLVANIA

CITY           SKY/WX    TMP DP  RH WIND       PRES   REMARKS
ERIE           CLOUDY    34  27  75 NE6       30.02R
MEADVILLE      CLOUDY    31  28  89 SW3       29.97S
FRANKLIN*      CLOUDY    30  27  86 CALM      29.98S
NEW CASTLE       N/A     32  30  92 CALM      30.00F
BEAVER COUNTY  NOT AVBL
BUTLER*        CLOUDY    30  30 100 CALM      30.00S
PITTSBURGH INT CLOUDY    32  31  96 W3        29.98F FOG
PITTSBURGH     CLOUDY    32  28  85 NW3       29.97F FOG
INDIANA*       CLOUDY    32  32 100 CALM      30.01S FOG
LATROBE        CLOUDY    32  32 100 CALM      30.00F FOG
WASHINGTON CO* CLOUDY    32  28  86 CALM      29.99S
$$

PAZ004>006-010>012-017>019-024>028-033>037-041-042-045-046-049>053-270800-
CENTRAL PENNSYLVANIA

CITY           SKY/WX    TMP DP  RH WIND       PRES   REMARKS
BRADFORD       CLOUDY    28  23  81 CALM      29.93S
DUBOIS         CLOUDY    30  27  88 N5        29.94S
CLEARFIELD     CLOUDY    30  28  92 N3        29.96F
JOHNSTOWN      FOG       29  28  96 W6        29.92S VSB 1/4
ALTOONA        CLOUDY    31  29  92 W8        29.97R
STATE COLLEGE  CLOUDY    31  28  90 CALM      29.98R
WILLIAMSPORT   CLOUDY    32  29  88 W8        29.98R
SELINSGROVE    CLOUDY    33  30  88 CALM      29.99R
FT INDIANTOWN  CLOUDY    34  29  82 NW8       29.96S
CAPITAL CITY   CLOUDY    35  29  78 NW9       29.98S
HARRISBURG     CLOUDY    34  30  85 NW9       29.98R
YORK           CLOUDY    33  31  92 CALM      29.98R
$$

PAZ038>040-043-044-047-048-054-055-060>062-067>071-270800-
EASTERN PENNSYLVANIA

CITY           SKY/WX    TMP DP  RH WIND       PRES   REMARKS
SCRANTON       CLOUDY    31  27  85 W12       29.93R
MOUNT POCONO   MIX PCPN  28  24  85 NW13G22   29.84R
ALLENTOWN      CLOUDY    35  28  75 W8        29.93R
QUAKERTOWN*    CLOUDY    32  30  93 W3        29.93R
READING        CLOUDY    35  29  78 W7        29.95R
LANCASTER      CLOUDY    33  29  85 W9        29.97R
COATESVILLE    CLOUDY    32  32 100 NW10      29.94R
POTTSTOWN      CLOUDY    33  30  88 W5        29.95R
BLUE BELL      CLOUDY    36  32  87 CALM      29.93R
DOYLESTOWN     CLOUDY    33  31  92 W5        29.92R
WILLOW GROVE   NOT AVBL
NORTH PHILA    CLOUDY    37  30  75 W9        29.95R
PHILADELPHIA   CLOUDY    37  31  78 W8        29.96R
$$



USA.gov is the U.S. government's official web portal to all federal, state and local government web resources and services.